Time,TemperatureF,DewpointF,PressureIn,WindDirection,WindDirectionDegrees,WindSpeedMPH,WindSpeedGustMPH,Humidity,HourlyPrecipIn,Conditions,Clouds,dailyrainin,SoftwareType,DateUTC
2013-03-04 00:03:00,35.6,21.4,29.96,SE,143,3.1,5.8,56,0.00,CLR,,0.00,WeatherDisplay:10.37,2013-03-04 06:03:00,
2013-03-04 00:08:00,35.8,21.6,29.96,SE,137,2.7,5.8,56,0.00,CLR,,0.00,WeatherDisplay:10.37,2013-03-04 06:08:00,
2013-03-04 00:13:00,35.8,21.6,29.96,SSE,149,3.1,3.5,56,0.00,CLR,,0.00,WeatherDisplay:10.37,2013-03-04 06:13:00,
2013-03-04 00:18:00,35.8,21.6,29.96,SE,143,3.6,5.8,56,0.00,CLR,,0.00,WeatherDisplay:10.37,2013-03-04 06:18:00,
2013-03-04 00:23:00,35.8,21.6,29.96,ESE,119,2.7,3.5,56,0.00,CLR,,0.00,WeatherDisplay:10.37,2013-03-04 06:23:00,
2013-03-04 00:28:00,35.8,21.6,29.96,ESE,121,3.1,3.5,56,0.00,CLR,,0.00,WeatherDisplay:10.37,2013-03-04 06:28:00,
2013-03-04 00:33:00,35.8,21.6,29.96,SE,138,3.1,3.5,56,0.00,CLR,,0.00,WeatherDisplay:10.37,2013-03-04 06:33:00,
2013-03-04 00:38:00,35.6,21.4,29.96,SE,140,4.5,4.6,56,0.00,CLR,,0.00,WeatherDisplay:10.37,2013-03-04 06:38:00,
2013-03-04 00:43:00,35.6,21.4,29.96,SE,139,3.6,5.8,56,0.00,CLR,,0.00,WeatherDisplay:10.37,2013-03-04 06:43:00,
2013-03-04 00:48:00,35.6,21.4,29.96,SE,134,3.1,3.6,56,0.00,CLR,,0.00,WeatherDisplay:10.37,2013-03-04 06:48:00,
2013-03-04 00:53:00,35.6,21.4,29.96,SE,129,2.7,3.5,56,0.00,CLR,,0.00,WeatherDisplay:10.37,2013-03-04 06:53:00,
2013-03-04 00:58:00,35.6,21.4,29.96,SE,140,2.7,4.6,56,0.00,CLR,,0.00,WeatherDisplay:10.37,2013-03-04 06:58:00,
2013-03-04 01:03:00,35.6,21.4,29.96,SE,136,2.2,3.5,56,0.00,CLR,,0.00,WeatherDisplay:10.37,2013-03-04 07:03:00,
2013-03-04 01:08:00,35.4,21.7,29.93,SE,138,3.6,5.8,57,0.00,CLR,,0.00,WeatherDisplay:10.37,2013-03-04 07:08:00,
2013-03-04 01:13:00,35.6,21.4,29.93,SE,131,2.7,3.5,56,0.00,CLR,,0.00,WeatherDisplay:10.37,2013-03-04 07:13:00,
2013-03-04 01:18:00,35.4,21.7,29.93,SE,125,2.7,3.5,57,0.00,CLR,,0.00,WeatherDisplay:10.37,2013-03-04 07:18:00,
2013-03-04 01:23:00,35.4,21.7,29.93,SSE,157,2.2,3.5,57,0.00,CLR,,0.00,WeatherDisplay:10.37,2013-03-04 07:23:00,
2013-03-04 01:28:00,35.2,21.5,29.93,SE,130,3.1,3.5,57,0.00,CLR,,0.00,WeatherDisplay:10.37,2013-03-04 07:28:00,
2013-03-04 01:33:00,35.2,21.5,29.93,SE,136,2.7,3.5,57,0.00,CLR,,0.00,WeatherDisplay:10.37,2013-03-04 07:33:00,
2013-03-04 01:38:00,35.2,21.5,29.93,ESE,120,2.7,3.5,57,0.00,CLR,,0.00,WeatherDisplay:10.37,2013-03-04 07:38:00,
2013-03-04 01:43:00,35.1,21.3,29.93,ESE,123,4.0,4.0,57,0.00,CLR,,0.00,WeatherDisplay:10.37,2013-03-04 07:43:00,
2013-03-04 01:48:00,35.1,21.3,29.93,SE,125,3.1,3.5,57,0.00,CLR,,0.00,WeatherDisplay:10.37,2013-03-04 07:48:00,
2013-03-04 01:53:00,35.1,21.3,29.93,ESE,119,2.7,3.5,57,0.00,CLR,,0.00,WeatherDisplay:10.37,2013-03-04 07:53:00,
2013-03-04 01:58:00,35.1,21.3,29.93,ESE,116,2.2,3.5,57,0.00,CLR,,0.00,WeatherDisplay:10.37,2013-03-04 07:58:00,
2013-03-04 02:03:00,34.9,21.2,29.93,SE,145,3.1,3.5,57,0.00,CLR,,0.00,WeatherDisplay:10.37,2013-03-04 08:03:00,
2013-03-04 02:08:00,34.9,21.2,29.90,SE,132,2.7,3.5,57,0.00,CLR,,0.00,WeatherDisplay:10.37,2013-03-04 08:08:00,
2013-03-04 02:13:00,35.1,21.8,29.90,SE,129,2.7,5.8,58,0.00,CLR,,0.00,WeatherDisplay:10.37,2013-03-04 08:13:00,
2013-03-04 02:18:00,35.4,22.1,29.90,SE,140,4.0,5.8,58,0.00,CLR,,0.00,WeatherDisplay:10.37,2013-03-04 08:18:00,
2013-03-04 02:23:00,35.6,21.9,29.90,SE,125,3.1,3.5,57,0.00,CLR,,0.00,WeatherDisplay:10.37,2013-03-04 08:23:00,
2013-03-04 02:28:00,35.6,21.9,29.90,SE,125,2.7,3.5,57,0.00,CLR,,0.00,WeatherDisplay:10.37,2013-03-04 08:28:00,
2013-03-04 02:33:00,35.6,21.9,29.90,SE,134,4.0,5.8,57,0.00,CLR,,0.00,WeatherDisplay:10.37,2013-03-04 08:33:00,
2013-03-04 02:38:00,35.8,22.0,29.90,SE,143,0.0,3.5,57,0.00,CLR,,0.00,WeatherDisplay:10.37,2013-03-04 08:38:00,
2013-03-04 02:43:00,35.8,22.0,29.90,SE,139,2.7,4.6,57,0.00,CLR,,0.00,WeatherDisplay:10.37,2013-03-04 08:43:00,
2013-03-04 02:48:00,35.8,22.0,29.90,ESE,120,3.6,4.6,57,0.00,CLR,,0.00,WeatherDisplay:10.37,2013-03-04 08:48:00,
2013-03-04 02:53:00,35.8,21.6,29.90,SE,136,3.1,3.5,56,0.00,CLR,,0.00,WeatherDisplay:10.37,2013-03-04 08:53:00,
2013-03-04 02:58:00,36.0,21.8,29.90,SSE,151,4.0,4.6,56,0.00,CLR,,0.00,WeatherDisplay:10.37,2013-03-04 08:58:00,
2013-03-04 03:03:00,36.0,21.8,29.90,SE,137,3.6,4.6,56,0.00,CLR,,0.00,WeatherDisplay:10.37,2013-03-04 09:03:00,
2013-03-04 03:08:00,36.1,21.9,29.87,SE,138,3.1,3.5,56,0.00,CLR,,0.00,WeatherDisplay:10.37,2013-03-04 09:08:00,
2013-03-04 03:13:00,36.1,21.9,29.87,SE,126,2.7,3.5,56,0.00,CLR,,0.00,WeatherDisplay:10.37,2013-03-04 09:13:00,
2013-03-04 03:18:00,36.0,21.8,29.87,SE,124,2.7,3.5,56,0.00,CLR,,0.00,WeatherDisplay:10.37,2013-03-04 09:18:00,
2013-03-04 03:23:00,36.1,21.9,29.87,SE,124,2.7,3.5,56,0.00,CLR,,0.00,WeatherDisplay:10.37,2013-03-04 09:23:00,
2013-03-04 03:28:00,36.1,21.9,29.87,SE,124,3.1,3.5,56,0.00,CLR,,0.00,WeatherDisplay:10.37,2013-03-04 09:28:00,
2013-03-04 03:33:00,36.1,21.9,29.87,ESE,110,3.1,4.0,56,0.00,CLR,,0.00,WeatherDisplay:10.37,2013-03-04 09:33:00,
2013-03-04 03:38:00,36.1,21.9,29.87,SE,135,4.5,8.1,56,0.00,CLR,,0.00,WeatherDisplay:10.37,2013-03-04 09:38:00,
2013-03-04 03:43:00,36.3,22.1,29.87,SE,142,3.6,4.0,56,0.00,CLR,,0.00,WeatherDisplay:10.37,2013-03-04 09:43:00,
2013-03-04 03:48:00,36.3,22.1,29.87,ESE,120,3.6,4.6,56,0.00,CLR,,0.00,WeatherDisplay:10.37,2013-03-04 09:48:00,
2013-03-04 03:53:00,36.3,22.1,29.87,ESE,112,3.6,5.8,56,0.00,CLR,,0.00,WeatherDisplay:10.37,2013-03-04 09:53:00,
2013-03-04 03:58:00,36.3,22.1,29.87,ESE,118,4.5,8.1,56,0.00,CLR,,0.00,WeatherDisplay:10.37,2013-03-04 09:58:00,
2013-03-04 04:03:00,36.3,22.1,29.87,SE,131,3.1,4.6,56,0.00,CLR,,0.00,WeatherDisplay:10.37,2013-03-04 10:03:00,
2013-03-04 04:08:00,36.3,22.1,29.87,SSE,164,4.0,4.6,56,0.00,CLR,,0.00,WeatherDisplay:10.37,2013-03-04 10:08:00,
2013-03-04 04:13:00,36.3,22.1,29.87,SSE,151,3.6,4.6,56,0.00,CLR,,0.00,WeatherDisplay:10.37,2013-03-04 10:13:00,
2013-03-04 04:18:00,36.3,22.1,29.87,SE,141,3.1,3.6,56,0.00,CLR,,0.00,WeatherDisplay:10.37,2013-03-04 10:18:00,
2013-03-04 04:23:00,36.3,22.1,29.84,East,94,3.6,5.8,56,0.00,CLR,,0.00,WeatherDisplay:10.37,2013-03-04 10:23:00,
2013-03-04 04:28:00,36.5,22.3,29.84,ESE,111,4.9,5.8,56,0.00,CLR,,0.00,WeatherDisplay:10.37,2013-03-04 10:28:00,
2013-03-04 04:33:00,36.7,22.4,29.84,SE,128,4.0,5.8,56,0.00,CLR,,0.00,WeatherDisplay:10.37,2013-03-04 10:33:00,
2013-03-04 04:38:00,36.7,22.4,29.84,ESE,113,4.9,5.8,56,0.00,CLR,,0.00,WeatherDisplay:10.37,2013-03-04 10:38:00,
2013-03-04 04:43:00,36.9,22.6,29.84,SE,127,4.0,5.8,56,0.00,CLR,,0.00,WeatherDisplay:10.37,2013-03-04 10:43:00,
2013-03-04 04:48:00,36.9,22.2,29.84,SE,126,3.6,5.8,55,0.00,CLR,,0.00,WeatherDisplay:10.37,2013-03-04 10:48:00,
2013-03-04 04:53:00,37.0,22.4,29.84,SE,129,4.0,5.8,55,0.00,CLR,,0.00,WeatherDisplay:10.37,2013-03-04 10:53:00,
2013-03-04 04:58:00,37.0,22.4,29.84,East,84,4.0,5.8,55,0.00,CLR,,0.00,WeatherDisplay:10.37,2013-03-04 10:58:00,
2013-03-04 05:03:00,37.2,22.5,29.84,SSE,151,3.6,5.8,55,0.00,CLR,,0.00,WeatherDisplay:10.37,2013-03-04 11:03:00,
2013-03-04 05:08:00,37.2,22.5,29.84,ESE,121,3.6,4.6,55,0.00,CLR,,0.00,WeatherDisplay:10.37,2013-03-04 11:08:00,
2013-03-04 05:13:00,37.2,22.5,29.84,SE,130,3.6,3.6,55,0.00,CLR,,0.00,WeatherDisplay:10.37,2013-03-04 11:13:00,
2013-03-04 05:18:00,37.0,22.4,29.84,SE,127,4.5,5.8,55,0.00,CLR,,0.00,WeatherDisplay:10.37,2013-03-04 11:18:00,
2013-03-04 05:23:00,37.0,22.4,29.84,SSE,157,4.0,5.8,55,0.00,CLR,,0.00,WeatherDisplay:10.37,2013-03-04 11:23:00,
2013-03-04 05:28:00,37.0,21.5,29.84,SE,146,4.9,5.8,53,0.00,CLR,,0.00,WeatherDisplay:10.37,2013-03-04 11:28:00,
2013-03-04 05:33:00,37.0,21.5,29.84,ESE,123,3.1,3.5,53,0.00,CLR,,0.00,WeatherDisplay:10.37,2013-03-04 11:33:00,
2013-03-04 05:38:00,37.0,21.5,29.84,SE,146,3.6,5.8,53,0.00,CLR,,0.00,WeatherDisplay:10.37,2013-03-04 11:38:00,
2013-03-04 05:43:00,37.0,21.5,29.84,SE,135,3.6,5.8,53,0.00,CLR,,0.00,WeatherDisplay:10.37,2013-03-04 11:43:00,
2013-03-04 05:48:00,37.0,21.5,29.84,SE,129,2.7,3.5,53,0.00,CLR,,0.00,WeatherDisplay:10.37,2013-03-04 11:48:00,
2013-03-04 05:53:00,37.0,21.5,29.84,SE,136,4.0,6.3,53,0.00,CLR,,0.00,WeatherDisplay:10.37,2013-03-04 11:53:00,
2013-03-04 05:58:00,37.0,21.5,29.84,ESE,121,4.0,4.0,53,0.00,CLR,,0.00,WeatherDisplay:10.37,2013-03-04 11:58:00,
2013-03-04 06:03:00,36.9,21.3,29.84,SE,139,3.1,3.5,53,0.00,CLR,,0.00,WeatherDisplay:10.37,2013-03-04 12:03:00,
2013-03-04 06:09:00,36.9,21.3,29.84,SE,139,3.6,4.9,53,0.00,CLR,,0.00,WeatherDisplay:10.37,2013-03-04 12:09:00,
2013-03-04 06:14:00,36.9,21.3,29.84,SE,125,3.1,3.5,53,0.00,CLR,,0.00,WeatherDisplay:10.37,2013-03-04 12:14:00,
2013-03-04 06:19:00,36.7,21.1,29.84,SE,142,3.1,4.6,53,0.00,CLR,,0.00,WeatherDisplay:10.37,2013-03-04 12:19:00,
2013-03-04 06:24:00,36.7,21.1,29.84,ESE,122,3.6,4.6,53,0.00,CLR,,0.00,WeatherDisplay:10.37,2013-03-04 12:24:00,
2013-03-04 06:29:00,36.5,21.0,29.84,SE,140,0.0,3.1,53,0.00,CLR,,0.00,WeatherDisplay:10.37,2013-03-04 12:29:00,
2013-03-04 06:34:00,36.5,21.0,29.84,SE,139,3.1,3.5,53,0.00,CLR,,0.00,WeatherDisplay:10.37,2013-03-04 12:34:00,
2013-03-04 06:39:00,36.3,20.8,29.84,ESE,110,3.6,4.6,53,0.00,CLR,,0.00,WeatherDisplay:10.37,2013-03-04 12:39:00,
2013-03-04 06:44:00,36.5,21.0,29.84,South,176,2.7,3.5,53,0.00,CLR,,0.00,WeatherDisplay:10.37,2013-03-04 12:44:00,
2013-03-04 06:49:00,36.5,21.0,29.84,SE,132,2.7,3.5,53,0.00,CLR,,0.00,WeatherDisplay:10.37,2013-03-04 12:49:00,
2013-03-04 06:54:00,36.7,21.1,29.84,SE,134,2.7,3.5,53,0.00,CLR,,0.00,WeatherDisplay:10.37,2013-03-04 12:54:00,
2013-03-04 06:59:00,36.7,21.1,29.84,SE,145,3.6,5.8,53,0.00,CLR,,0.00,WeatherDisplay:10.37,2013-03-04 12:59:00,
2013-03-04 07:04:00,36.9,21.3,29.84,South,182,3.1,3.5,53,0.00,CLR,,0.00,WeatherDisplay:10.37,2013-03-04 13:04:00,
2013-03-04 07:09:00,36.9,21.3,29.84,SE,142,3.6,5.8,53,0.00,CLR,,0.00,WeatherDisplay:10.37,2013-03-04 13:09:00,
2013-03-04 07:14:00,37.0,21.5,29.84,South,179,2.7,3.5,53,0.00,CLR,,0.00,WeatherDisplay:10.37,2013-03-04 13:14:00,
2013-03-04 07:19:00,37.2,21.6,29.84,ESE,111,4.0,4.6,53,0.00,CLR,,0.00,WeatherDisplay:10.37,2013-03-04 13:19:00,
2013-03-04 07:24:00,37.6,21.5,29.84,East,93,2.7,2.7,52,0.00,CLR,,0.00,WeatherDisplay:10.37,2013-03-04 13:24:00,
2013-03-04 07:29:00,37.8,21.7,29.84,ESE,109,3.1,3.5,52,0.00,CLR,,0.00,WeatherDisplay:10.37,2013-03-04 13:29:00,
2013-03-04 07:34:00,37.9,21.9,29.84,SE,132,3.1,3.5,52,0.00,CLR,,0.00,WeatherDisplay:10.37,2013-03-04 13:34:00,
2013-03-04 07:39:00,38.1,22.0,29.84,SSE,148,2.7,3.5,52,0.00,CLR,,0.00,WeatherDisplay:10.37,2013-03-04 13:39:00,
2013-03-04 07:44:00,38.1,22.0,29.84,SSE,150,2.7,4.6,52,0.00,CLR,,0.00,WeatherDisplay:10.37,2013-03-04 13:44:00,
2013-03-04 07:49:00,38.5,22.4,29.84,SE,127,4.0,5.8,52,0.00,CLR,,0.00,WeatherDisplay:10.37,2013-03-04 13:49:00,
2013-03-04 07:54:00,38.7,22.5,29.84,SSE,158,3.1,5.8,52,0.00,CLR,,0.00,WeatherDisplay:10.37,2013-03-04 13:54:00,
2013-03-04 07:59:00,39.2,23.0,29.84,SE,133,4.5,5.8,52,0.00,CLR,,0.00,WeatherDisplay:10.37,2013-03-04 13:59:00,
2013-03-04 08:04:00,39.9,23.7,29.84,SSE,148,4.0,5.8,52,0.00,CLR,,0.00,WeatherDisplay:10.37,2013-03-04 14:04:00,
2013-03-04 08:09:00,40.5,24.2,29.81,SE,134,4.5,5.8,52,0.00,CLR,,0.00,WeatherDisplay:10.37,2013-03-04 14:09:00,
2013-03-04 08:14:00,41.2,24.9,29.81,SE,146,4.0,5.8,52,0.00,CLR,,0.00,WeatherDisplay:10.37,2013-03-04 14:14:00,
2013-03-04 08:19:00,41.5,25.2,29.81,ESE,122,4.9,8.1,52,0.00,CLR,,0.00,WeatherDisplay:10.37,2013-03-04 14:19:00,
2013-03-04 08:24:00,42.1,24.3,29.81,SE,142,4.0,10.4,49,0.00,CLR,,0.00,WeatherDisplay:10.37,2013-03-04 14:24:00,
2013-03-04 08:29:00,42.8,25.9,29.81,South,191,3.6,5.8,51,0.00,CLR,,0.00,WeatherDisplay:10.37,2013-03-04 14:29:00,
2013-03-04 08:34:00,43.5,25.6,29.81,SE,140,7.2,9.2,49,0.00,CLR,,0.00,WeatherDisplay:10.37,2013-03-04 14:34:00,
2013-03-04 08:39:00,43.7,25.8,29.81,ESE,113,4.0,5.8,49,0.00,CLR,,0.00,WeatherDisplay:10.37,2013-03-04 14:39:00,
2013-03-04 08:44:00,43.7,25.8,29.81,SE,125,4.0,10.4,49,0.00,CLR,,0.00,WeatherDisplay:10.37,2013-03-04 14:44:00,
2013-03-04 08:49:00,43.7,25.8,29.81,ESE,120,4.5,5.8,49,0.00,CLR,,0.00,WeatherDisplay:10.37,2013-03-04 14:49:00,
2013-03-04 08:54:00,44.1,26.1,29.81,SSW,195,6.3,9.2,49,0.00,CLR,,0.00,WeatherDisplay:10.37,2013-03-04 14:54:00,
2013-03-04 08:59:00,44.2,26.3,29.81,SE,133,3.6,6.3,49,0.00,CLR,,0.00,WeatherDisplay:10.37,2013-03-04 14:59:00,
2013-03-04 09:04:00,44.6,26.1,29.81,South,177,2.7,3.6,48,0.00,CLR,,0.00,WeatherDisplay:10.37,2013-03-04 15:04:00,
2013-03-04 09:09:00,44.6,26.1,29.81,ESE,115,3.6,5.8,48,0.00,CLR,,0.00,WeatherDisplay:10.37,2013-03-04 15:09:00,
2013-03-04 09:14:00,44.6,26.1,29.81,SSE,150,6.3,8.1,48,0.00,CLR,,0.00,WeatherDisplay:10.37,2013-03-04 15:14:00,
2013-03-04 09:19:00,44.4,26.4,29.81,SSE,151,4.9,6.3,49,0.00,CLR,,0.00,WeatherDisplay:10.37,2013-03-04 15:19:00,
2013-03-04 09:24:00,44.2,26.3,29.81,South,187,5.4,8.1,49,0.00,CLR,,0.00,WeatherDisplay:10.37,2013-03-04 15:24:00,
2013-03-04 09:29:00,44.4,27.4,29.81,SSE,159,4.9,5.8,51,0.00,CLR,,0.00,WeatherDisplay:10.37,2013-03-04 15:29:00,
2013-03-04 09:34:00,44.6,27.6,29.81,SSE,156,4.0,5.8,51,0.00,CLR,,0.00,WeatherDisplay:10.37,2013-03-04 15:34:00,
2013-03-04 09:39:00,44.8,27.7,29.81,SSE,166,4.5,5.8,51,0.00,CLR,,0.00,WeatherDisplay:10.37,2013-03-04 15:39:00,
2013-03-04 09:44:00,45.1,28.1,29.81,SSE,166,4.0,5.8,51,0.00,CLR,,0.00,WeatherDisplay:10.37,2013-03-04 15:44:00,
2013-03-04 09:49:00,45.3,28.2,29.81,WSW,252,4.5,6.9,51,0.00,CLR,,0.00,WeatherDisplay:10.37,2013-03-04 15:49:00,
2013-03-04 09:54:00,45.7,28.6,29.78,SSE,162,4.0,5.8,51,0.00,CLR,,0.00,WeatherDisplay:10.37,2013-03-04 15:54:00,
2013-03-04 09:59:00,46.0,28.9,29.78,SSE,155,4.5,5.8,51,0.00,CLR,,0.00,WeatherDisplay:10.37,2013-03-04 15:59:00,
2013-03-04 10:04:00,46.4,28.8,29.78,West,270,5.4,10.4,50,0.00,CLR,,0.00,WeatherDisplay:10.37,2013-03-04 16:04:00,
2013-03-04 10:09:00,46.6,28.9,29.78,SSE,148,5.8,6.3,50,0.00,CLR,,0.00,WeatherDisplay:10.37,2013-03-04 16:09:00,
2013-03-04 10:14:00,46.9,29.2,29.78,South,187,4.0,5.8,50,0.00,CLR,,0.00,WeatherDisplay:10.37,2013-03-04 16:14:00,
2013-03-04 10:19:00,47.1,29.4,29.78,ESE,122,2.2,5.8,50,0.00,CLR,,0.00,WeatherDisplay:10.37,2013-03-04 16:19:00,
2013-03-04 10:24:00,47.1,29.4,29.78,SSE,152,3.6,3.6,50,0.00,CLR,,0.00,WeatherDisplay:10.37,2013-03-04 16:24:00,
2013-03-04 10:29:00,47.3,29.6,29.78,SE,136,6.3,6.3,50,0.00,CLR,,0.00,WeatherDisplay:10.37,2013-03-04 16:29:00,
2013-03-04 10:34:00,47.1,29.4,29.78,SSE,149,5.4,5.8,50,0.00,CLR,,0.00,WeatherDisplay:10.37,2013-03-04 16:34:00,
2013-03-04 10:39:00,47.1,29.4,29.78,SSW,202,4.0,8.1,50,0.00,CLR,,0.00,WeatherDisplay:10.37,2013-03-04 16:39:00,
2013-03-04 10:44:00,47.3,29.6,29.78,SSW,203,4.5,6.9,50,0.00,CLR,,0.00,WeatherDisplay:10.37,2013-03-04 16:44:00,
2013-03-04 10:49:00,47.3,29.6,29.78,SW,216,2.2,3.6,50,0.00,CLR,,0.00,WeatherDisplay:10.37,2013-03-04 16:49:00,
2013-03-04 10:54:00,47.5,29.7,29.78,SSW,200,4.5,4.6,50,0.00,CLR,,0.00,WeatherDisplay:10.37,2013-03-04 16:54:00,
2013-03-04 10:59:00,47.7,31.4,29.78,SSE,156,4.5,5.8,53,0.00,CLR,,0.00,WeatherDisplay:10.37,2013-03-04 16:59:00,
2013-03-04 11:04:00,47.7,31.4,29.78,SSE,156,4.5,5.8,53,0.00,CLR,,0.00,WeatherDisplay:10.37,2013-03-04 17:04:00,
2013-03-04 11:09:00,47.8,31.5,29.78,SSE,147,3.1,3.5,53,0.00,CLR,,0.00,WeatherDisplay:10.37,2013-03-04 17:09:00,
2013-03-04 11:14:00,48.0,31.7,29.78,South,182,4.0,5.8,53,0.00,CLR,,0.00,WeatherDisplay:10.37,2013-03-04 17:14:00,
2013-03-04 11:19:00,48.2,31.4,29.78,SSE,156,4.9,8.1,52,0.00,CLR,,0.00,WeatherDisplay:10.37,2013-03-04 17:19:00,
2013-03-04 11:24:00,48.2,31.4,29.78,South,173,0.0,3.5,52,0.00,CLR,,0.00,WeatherDisplay:10.37,2013-03-04 17:24:00,
2013-03-04 11:29:00,48.4,31.5,29.78,SSE,164,4.5,5.8,52,0.00,CLR,,0.00,WeatherDisplay:10.37,2013-03-04 17:29:00,
2013-03-04 11:34:00,48.6,31.7,29.78,SSE,163,6.3,8.1,52,0.00,CLR,,0.00,WeatherDisplay:10.37,2013-03-04 17:34:00,
2013-03-04 11:39:00,48.7,31.9,29.75,SSE,165,4.9,5.8,52,0.00,CLR,,0.00,WeatherDisplay:10.37,2013-03-04 17:39:00,
2013-03-04 11:44:00,48.9,32.0,29.75,WSW,243,5.8,8.1,52,0.00,CLR,,0.00,WeatherDisplay:10.37,2013-03-04 17:44:00,
2013-03-04 11:49:00,49.1,32.2,29.75,South,171,2.7,3.5,52,0.00,CLR,,0.00,WeatherDisplay:10.37,2013-03-04 17:49:00,
2013-03-04 11:54:00,49.3,32.4,29.75,SE,138,3.6,6.3,52,0.00,CLR,,0.00,WeatherDisplay:10.37,2013-03-04 17:54:00,
2013-03-04 11:59:00,49.5,32.6,29.75,South,181,2.2,5.8,52,0.00,CLR,,0.00,WeatherDisplay:10.37,2013-03-04 17:59:00,
2013-03-04 12:04:00,49.5,32.6,29.75,SSE,155,3.6,5.8,52,0.00,CLR,,0.00,WeatherDisplay:10.37,2013-03-04 18:04:00,
2013-03-04 12:09:00,49.6,32.7,29.75,South,173,5.4,6.9,52,0.00,CLR,,0.00,WeatherDisplay:10.37,2013-03-04 18:09:00,
2013-03-04 12:14:00,49.8,32.9,29.75,SSE,162,4.0,4.0,52,0.00,CLR,,0.00,WeatherDisplay:10.37,2013-03-04 18:14:00,
2013-03-04 12:19:00,50.0,33.1,29.75,SSE,163,5.4,8.1,52,0.00,CLR,,0.00,WeatherDisplay:10.37,2013-03-04 18:19:00,
2013-03-04 12:24:00,50.0,33.1,29.72,SSE,155,4.9,5.8,52,0.00,CLR,,0.00,WeatherDisplay:10.37,2013-03-04 18:24:00,
2013-03-04 12:29:00,49.8,32.9,29.72,SSE,149,4.0,5.8,52,0.00,CLR,,0.00,WeatherDisplay:10.37,2013-03-04 18:29:00,
2013-03-04 12:30:00,49.8,32.9,29.72,South,169,3.6,5.8,52,0.00,CLR,,0.00,WeatherDisplay:10.37,2013-03-04 18:30:00,
2013-03-04 12:32:00,49.8,33.4,29.72,South,181,4.0,5.8,53,0.00,CLR,,0.00,WeatherDisplay:10.37,2013-03-04 18:32:00,
2013-03-04 12:37:00,50.0,33.1,29.72,SW,222,4.0,4.6,52,0.00,CLR,,0.00,WeatherDisplay:10.37,2013-03-04 18:37:00,
2013-03-04 12:42:00,50.0,33.1,29.72,SE,141,4.5,5.8,52,0.00,CLR,,0.00,WeatherDisplay:10.37,2013-03-04 18:42:00,
2013-03-04 12:47:00,50.2,33.2,29.72,South,170,0.0,0.0,52,0.00,CLR,,0.00,WeatherDisplay:10.37,2013-03-04 18:47:00,
2013-03-04 12:52:00,50.2,33.2,29.72,WSW,253,3.1,3.5,52,0.00,CLR,,0.00,WeatherDisplay:10.37,2013-03-04 18:52:00,
2013-03-04 12:57:00,50.2,33.2,29.72,SE,145,4.9,5.8,52,0.00,CLR,,0.00,WeatherDisplay:10.37,2013-03-04 18:57:00,
2013-03-04 13:02:00,50.4,33.4,29.72,SW,236,5.8,8.1,52,0.00,CLR,,0.00,WeatherDisplay:10.37,2013-03-04 19:02:00,
2013-03-04 13:08:00,50.4,33.4,29.72,SE,130,3.1,3.6,52,0.00,CLR,,0.00,WeatherDisplay:10.37,2013-03-04 19:08:00,
2013-03-04 13:13:00,50.5,33.6,29.72,South,180,4.0,4.6,52,0.00,CLR,,0.00,WeatherDisplay:10.37,2013-03-04 19:13:00,
2013-03-04 13:18:00,50.5,33.6,29.72,SSW,196,5.4,5.8,52,0.00,CLR,,0.00,WeatherDisplay:10.37,2013-03-04 19:18:00,
2013-03-04 13:23:00,50.7,33.7,29.69,South,177,3.6,4.9,52,0.00,CLR,,0.00,WeatherDisplay:10.37,2013-03-04 19:23:00,
2013-03-04 13:28:00,50.7,33.7,29.69,South,178,3.6,3.6,52,0.00,CLR,,0.00,WeatherDisplay:10.37,2013-03-04 19:28:00,
2013-03-04 13:33:00,50.9,34.4,29.69,SSE,163,2.7,5.8,53,0.00,CLR,,0.00,WeatherDisplay:10.37,2013-03-04 19:33:00,
2013-03-04 13:38:00,50.9,34.4,29.69,South,171,4.0,5.8,53,0.00,CLR,,0.00,WeatherDisplay:10.37,2013-03-04 19:38:00,
2013-03-04 13:43:00,51.1,34.5,29.69,SE,146,4.0,4.0,53,0.00,CLR,,0.00,WeatherDisplay:10.37,2013-03-04 19:43:00,
2013-03-04 13:48:00,51.4,34.9,29.69,SE,124,2.7,5.8,53,0.00,CLR,,0.00,WeatherDisplay:10.37,2013-03-04 19:48:00,
2013-03-04 13:53:00,51.6,35.0,29.69,South,183,3.6,6.9,53,0.00,CLR,,0.00,WeatherDisplay:10.37,2013-03-04 19:53:00,
2013-03-04 13:58:00,51.6,35.0,29.69,SSE,151,4.5,5.8,53,0.00,CLR,,0.00,WeatherDisplay:10.37,2013-03-04 19:58:00,
2013-03-04 14:03:00,52.0,34.9,29.69,South,171,2.7,3.5,52,0.00,CLR,,0.00,WeatherDisplay:10.37,2013-03-04 20:03:00,
2013-03-04 14:08:00,52.2,35.1,29.69,SW,227,4.0,4.0,52,0.00,CLR,,0.00,WeatherDisplay:10.37,2013-03-04 20:08:00,
2013-03-04 14:13:00,52.5,35.4,29.69,South,181,4.0,5.8,52,0.00,CLR,,0.00,WeatherDisplay:10.37,2013-03-04 20:13:00,
2013-03-04 14:18:00,52.9,35.7,29.69,SSE,149,3.1,3.5,52,0.00,CLR,,0.00,WeatherDisplay:10.37,2013-03-04 20:18:00,
2013-03-04 14:23:00,53.1,35.9,29.69,SW,217,5.4,6.9,52,0.00,CLR,,0.00,WeatherDisplay:10.37,2013-03-04 20:23:00,
2013-03-04 14:28:00,53.1,35.9,29.69,South,191,5.8,5.8,52,0.00,CLR,,0.00,WeatherDisplay:10.37,2013-03-04 20:28:00,
2013-03-04 14:33:00,53.2,36.1,29.69,SSE,167,3.6,5.8,52,0.00,CLR,,0.00,WeatherDisplay:10.37,2013-03-04 20:33:00,
2013-03-04 14:38:00,53.2,36.1,29.69,South,184,4.9,5.8,52,0.00,CLR,,0.00,WeatherDisplay:10.37,2013-03-04 20:38:00,
2013-03-04 14:43:00,53.2,36.1,29.69,WSW,239,4.5,5.8,52,0.00,CLR,,0.00,WeatherDisplay:10.37,2013-03-04 20:43:00,
2013-03-04 14:48:00,53.4,36.2,29.69,South,188,2.2,2.3,52,0.00,CLR,,0.00,WeatherDisplay:10.37,2013-03-04 20:48:00,
2013-03-04 14:53:00,53.6,36.4,29.69,SSW,203,2.7,5.8,52,0.00,CLR,,0.00,WeatherDisplay:10.37,2013-03-04 20:53:00,
2013-03-04 14:58:00,53.8,36.6,29.69,SSW,198,3.1,3.6,52,0.00,CLR,,0.00,WeatherDisplay:10.37,2013-03-04 20:58:00,
2013-03-04 15:03:00,54.0,36.7,29.69,South,179,6.3,9.2,52,0.00,CLR,,0.00,WeatherDisplay:10.37,2013-03-04 21:03:00,
2013-03-04 15:08:00,54.1,36.9,29.69,SSE,164,4.0,5.8,52,0.00,CLR,,0.00,WeatherDisplay:10.37,2013-03-04 21:08:00,
2013-03-04 15:13:00,54.3,37.1,29.69,WSW,244,3.6,4.6,52,0.00,CLR,,0.00,WeatherDisplay:10.37,2013-03-04 21:13:00,
2013-03-04 15:18:00,54.1,36.9,29.69,SSE,154,6.3,8.1,52,0.00,CLR,,0.00,WeatherDisplay:10.37,2013-03-04 21:18:00,
2013-03-04 15:23:00,54.3,37.1,29.66,SE,141,3.6,5.8,52,0.00,CLR,,0.00,WeatherDisplay:10.37,2013-03-04 21:23:00,
2013-03-04 15:28:00,54.3,37.1,29.66,SSE,150,2.7,3.5,52,0.00,CLR,,0.00,WeatherDisplay:10.37,2013-03-04 21:28:00,
2013-03-04 15:33:00,54.3,37.1,29.66,SSE,168,3.6,5.8,52,0.00,CLR,,0.00,WeatherDisplay:10.37,2013-03-04 21:33:00,
2013-03-04 15:38:00,54.3,37.1,29.66,South,190,0.0,5.8,52,0.00,CLR,,0.00,WeatherDisplay:10.37,2013-03-04 21:38:00,
2013-03-04 15:43:00,54.3,37.1,29.66,SE,142,3.6,8.7,52,0.00,CLR,,0.00,WeatherDisplay:10.37,2013-03-04 21:43:00,
2013-03-04 15:48:00,54.5,37.2,29.66,South,184,2.7,2.7,52,0.00,CLR,,0.00,WeatherDisplay:10.37,2013-03-04 21:48:00,
2013-03-04 15:53:00,54.5,37.2,29.66,SSW,193,4.5,5.8,52,0.00,CLR,,0.00,WeatherDisplay:10.37,2013-03-04 21:53:00,
2013-03-04 15:58:00,54.7,37.4,29.66,SSE,164,0.0,2.3,52,0.00,CLR,,0.00,WeatherDisplay:10.37,2013-03-04 21:58:00,
2013-03-04 16:03:00,54.9,37.6,29.66,SSW,197,2.7,5.8,52,0.00,CLR,,0.00,WeatherDisplay:10.37,2013-03-04 22:03:00,
2013-03-04 16:08:00,54.7,37.4,29.66,SSE,167,6.7,8.1,52,0.00,CLR,,0.00,WeatherDisplay:10.37,2013-03-04 22:08:00,
2013-03-04 16:13:00,54.5,37.2,29.66,SE,142,5.4,5.8,52,0.00,CLR,,0.00,WeatherDisplay:10.37,2013-03-04 22:13:00,
2013-03-04 16:18:00,54.5,37.2,29.66,South,188,3.1,5.8,52,0.00,CLR,,0.00,WeatherDisplay:10.37,2013-03-04 22:18:00,
2013-03-04 16:23:00,54.5,37.2,29.66,SSE,161,4.0,5.8,52,0.00,CLR,,0.00,WeatherDisplay:10.37,2013-03-04 22:23:00,
2013-03-04 16:28:00,54.3,37.1,29.66,South,180,2.7,3.5,52,0.00,CLR,,0.00,WeatherDisplay:10.37,2013-03-04 22:28:00,
2013-03-04 16:33:00,54.3,37.1,29.66,South,188,4.0,5.8,52,0.00,CLR,,0.00,WeatherDisplay:10.37,2013-03-04 22:33:00,
2013-03-04 16:38:00,54.1,36.9,29.66,SSW,208,2.7,3.5,52,0.00,CLR,,0.00,WeatherDisplay:10.37,2013-03-04 22:38:00,
2013-03-04 16:43:00,54.1,36.9,29.66,South,183,0.0,2.3,52,0.00,CLR,,0.00,WeatherDisplay:10.37,2013-03-04 22:43:00,
2013-03-04 16:48:00,54.1,36.9,29.66,SSE,159,3.6,5.8,52,0.00,CLR,,0.00,WeatherDisplay:10.37,2013-03-04 22:48:00,
2013-03-04 16:53:00,54.1,36.9,29.69,SSE,162,2.2,3.5,52,0.00,CLR,,0.00,WeatherDisplay:10.37,2013-03-04 22:53:00,
2013-03-04 16:58:00,54.1,36.9,29.69,SSE,147,0.0,0.0,52,0.00,CLR,,0.00,WeatherDisplay:10.37,2013-03-04 22:58:00,
2013-03-04 17:04:00,54.1,36.9,29.69,SSE,164,0.0,0.0,52,0.00,CLR,,0.00,WeatherDisplay:10.37,2013-03-04 23:04:00,
2013-03-04 17:09:00,54.0,36.7,29.66,SSE,164,0.0,0.0,52,0.00,CLR,,0.00,WeatherDisplay:10.37,2013-03-04 23:09:00,
2013-03-04 17:14:00,54.0,36.7,29.66,SSE,164,0.0,0.0,52,0.00,CLR,,0.00,WeatherDisplay:10.37,2013-03-04 23:14:00,
2013-03-04 17:19:00,54.0,37.2,29.66,SSE,164,0.0,0.0,53,0.00,CLR,,0.00,WeatherDisplay:10.37,2013-03-04 23:19:00,
2013-03-04 17:24:00,54.0,37.2,29.66,SSE,164,0.0,0.0,53,0.00,CLR,,0.00,WeatherDisplay:10.37,2013-03-04 23:24:00,
2013-03-04 17:29:00,54.0,37.2,29.66,SSE,164,0.0,0.0,53,0.00,CLR,,0.00,WeatherDisplay:10.37,2013-03-04 23:29:00,
2013-03-04 17:34:00,53.8,37.0,29.66,SSE,164,0.0,0.0,53,0.00,CLR,,0.00,WeatherDisplay:10.37,2013-03-04 23:34:00,
2013-03-04 17:39:00,53.8,37.0,29.66,SSE,164,0.0,0.0,53,0.00,CLR,,0.00,WeatherDisplay:10.37,2013-03-04 23:39:00,
2013-03-04 17:44:00,53.6,36.9,29.66,SSE,164,0.0,0.0,53,0.00,CLR,,0.00,WeatherDisplay:10.37,2013-03-04 23:44:00,
2013-03-04 17:49:00,53.4,36.7,29.66,SSE,164,0.0,0.0,53,0.00,CLR,,0.00,WeatherDisplay:10.37,2013-03-04 23:49:00,
2013-03-04 17:54:00,53.4,36.7,29.66,SSE,164,0.0,0.0,53,0.00,CLR,,0.00,WeatherDisplay:10.37,2013-03-04 23:54:00,
2013-03-04 17:59:00,53.2,37.0,29.66,SSE,164,0.0,0.0,54,0.00,CLR,,0.00,WeatherDisplay:10.37,2013-03-04 23:59:00,
2013-03-04 18:04:00,53.2,37.0,29.66,SSE,164,0.0,0.0,54,0.00,CLR,,0.00,WeatherDisplay:10.37,2013-03-05 00:04:00,
2013-03-04 18:09:00,53.1,36.8,29.66,SSE,164,0.0,0.0,54,0.00,CLR,,0.00,WeatherDisplay:10.37,2013-03-05 00:09:00,
2013-03-04 18:14:00,53.1,36.8,29.66,SSE,164,0.0,0.0,54,0.00,CLR,,0.00,WeatherDisplay:10.37,2013-03-05 00:14:00,
2013-03-04 18:19:00,53.1,36.8,29.66,SSE,164,0.0,0.0,54,0.00,CLR,,0.00,WeatherDisplay:10.37,2013-03-05 00:19:00,
2013-03-04 18:24:00,53.1,36.8,29.69,SSE,164,0.0,0.0,54,0.00,CLR,,0.00,WeatherDisplay:10.37,2013-03-05 00:24:00,
2013-03-04 18:29:00,53.1,37.3,29.69,SSE,164,0.0,0.0,55,0.00,CLR,,0.00,WeatherDisplay:10.37,2013-03-05 00:29:00,
2013-03-04 18:34:00,53.1,37.3,29.69,SSE,164,0.0,0.0,55,0.00,CLR,,0.00,WeatherDisplay:10.37,2013-03-05 00:34:00,
2013-03-04 18:39:00,53.1,37.3,29.69,SSE,164,0.0,0.0,55,0.00,CLR,,0.00,WeatherDisplay:10.37,2013-03-05 00:39:00,
2013-03-04 18:44:00,53.1,37.3,29.69,SSE,164,0.0,0.0,55,0.00,CLR,,0.00,WeatherDisplay:10.37,2013-03-05 00:44:00,
2013-03-04 18:49:00,53.1,37.3,29.69,SSE,164,0.0,0.0,55,0.00,CLR,,0.00,WeatherDisplay:10.37,2013-03-05 00:49:00,
2013-03-04 18:54:00,53.1,37.3,29.69,SSE,164,0.0,0.0,55,0.00,CLR,,0.00,WeatherDisplay:10.37,2013-03-05 00:54:00,
2013-03-04 18:59:00,52.9,37.1,29.69,SSE,164,0.0,0.0,55,0.00,CLR,,0.00,WeatherDisplay:10.37,2013-03-05 00:59:00,
2013-03-04 19:04:00,52.7,37.0,29.69,SSE,164,0.0,2.7,55,0.00,CLR,,0.00,WeatherDisplay:10.37,2013-03-05 01:04:00,
2013-03-04 19:09:00,52.5,37.7,29.69,SSE,164,0.0,2.3,57,0.00,CLR,,0.00,WeatherDisplay:10.37,2013-03-05 01:09:00,
2013-03-04 19:14:00,52.3,37.5,29.69,WNW,300,3.6,3.6,57,0.00,CLR,,0.00,WeatherDisplay:10.37,2013-03-05 01:14:00,
2013-03-04 19:19:00,52.0,37.2,29.69,NW,307,0.0,0.0,57,0.00,CLR,,0.00,WeatherDisplay:10.37,2013-03-05 01:19:00,
2013-03-04 19:24:00,52.3,38.9,29.69,NW,307,0.0,0.0,60,0.00,CLR,,0.00,WeatherDisplay:10.37,2013-03-05 01:24:00,
2013-03-04 19:29:00,52.3,38.9,29.69,NW,307,0.0,0.0,60,0.00,CLR,,0.00,WeatherDisplay:10.37,2013-03-05 01:29:00,
2013-03-04 19:34:00,52.5,39.5,29.69,NW,307,0.0,0.0,61,0.00,CLR,,0.00,WeatherDisplay:10.37,2013-03-05 01:34:00,
2013-03-04 19:39:00,52.5,39.5,29.69,NW,307,0.0,0.0,61,0.00,CLR,,0.00,WeatherDisplay:10.37,2013-03-05 01:39:00,
2013-03-04 19:44:00,52.9,40.2,29.69,NW,307,0.0,0.0,62,0.00,CLR,,0.00,WeatherDisplay:10.37,2013-03-05 01:44:00,
2013-03-04 19:49:00,53.2,40.5,29.69,NW,307,0.0,0.0,62,0.00,CLR,,0.00,WeatherDisplay:10.37,2013-03-05 01:49:00,
2013-03-04 19:54:00,53.1,40.4,29.69,NW,307,2.7,2.7,62,0.00,CLR,,0.00,WeatherDisplay:10.37,2013-03-05 01:54:00,
2013-03-04 19:59:00,52.7,40.0,29.69,NW,307,0.0,3.5,62,0.00,CLR,,0.00,WeatherDisplay:10.37,2013-03-05 01:59:00,
2013-03-04 20:04:00,52.7,40.0,29.69,NW,307,0.0,3.5,62,0.00,CLR,,0.00,WeatherDisplay:10.37,2013-03-05 02:04:00,
2013-03-04 20:09:00,53.1,40.8,29.69,NW,307,2.2,2.3,63,0.00,CLR,,0.00,WeatherDisplay:10.37,2013-03-05 02:09:00,
2013-03-04 20:14:00,53.4,41.1,29.69,NW,307,2.2,2.3,63,0.00,CLR,,0.00,WeatherDisplay:10.37,2013-03-05 02:14:00,
2013-03-04 20:19:00,53.6,40.9,29.69,NW,307,0.0,0.0,62,0.00,CLR,,0.00,WeatherDisplay:10.37,2013-03-05 02:19:00,
2013-03-04 20:24:00,53.6,40.9,29.69,NW,307,0.0,0.0,62,0.00,CLR,,0.00,WeatherDisplay:10.37,2013-03-05 02:24:00,
2013-03-04 20:29:00,53.6,40.9,29.69,NW,307,0.0,0.0,62,0.00,CLR,,0.00,WeatherDisplay:10.37,2013-03-05 02:29:00,
2013-03-04 20:34:00,53.2,40.5,29.69,NW,313,0.0,3.5,62,0.00,CLR,,0.00,WeatherDisplay:10.37,2013-03-05 02:34:00,
2013-03-04 20:39:00,53.2,40.5,29.69,NNE,17,2.7,3.6,62,0.00,CLR,,0.00,WeatherDisplay:10.37,2013-03-05 02:39:00,
2013-03-04 20:44:00,53.1,40.4,29.69,North,6,3.1,4.0,62,0.00,CLR,,0.00,WeatherDisplay:10.37,2013-03-05 02:44:00,
2013-03-04 20:49:00,53.2,40.5,29.69,NNE,18,3.6,3.6,62,0.00,CLR,,0.00,WeatherDisplay:10.37,2013-03-05 02:49:00,
2013-03-04 20:54:00,53.2,40.5,29.69,North,353,4.0,5.8,62,0.00,CLR,,0.00,WeatherDisplay:10.37,2013-03-05 02:54:00,
2013-03-04 20:59:00,53.1,40.4,29.69,North,3,4.0,5.8,62,0.00,CLR,,0.00,WeatherDisplay:10.37,2013-03-05 02:59:00,
2013-03-04 21:04:00,52.9,40.2,29.69,North,5,3.1,3.5,62,0.00,CLR,,0.00,WeatherDisplay:10.37,2013-03-05 03:04:00,
2013-03-04 21:09:00,52.7,40.0,29.69,North,4,3.1,3.6,62,0.00,CLR,,0.00,WeatherDisplay:10.37,2013-03-05 03:09:00,
2013-03-04 21:14:00,52.7,40.0,29.69,NNE,16,4.0,4.0,62,0.00,CLR,,0.00,WeatherDisplay:10.37,2013-03-05 03:14:00,
2013-03-04 21:19:00,52.7,40.0,29.69,ENE,58,3.1,4.6,62,0.00,CLR,,0.00,WeatherDisplay:10.37,2013-03-05 03:19:00,
2013-03-04 21:24:00,52.9,39.8,29.69,East,85,3.1,3.5,61,0.00,CLR,,0.00,WeatherDisplay:10.37,2013-03-05 03:24:00,
2013-03-04 21:29:00,52.9,39.4,29.69,East,85,2.2,2.7,60,0.00,CLR,,0.00,WeatherDisplay:10.37,2013-03-05 03:29:00,
2013-03-04 21:34:00,52.7,39.2,29.69,East,84,0.0,0.0,60,0.00,CLR,,0.00,WeatherDisplay:10.37,2013-03-05 03:34:00,
2013-03-04 21:39:00,52.5,39.0,29.69,NE,48,3.6,4.0,60,0.00,CLR,,0.00,WeatherDisplay:10.37,2013-03-05 03:39:00,
2013-03-04 21:44:00,52.5,39.0,29.69,East,84,3.1,3.5,60,0.00,CLR,,0.00,WeatherDisplay:10.37,2013-03-05 03:44:00,
2013-03-04 21:49:00,52.3,38.9,29.69,ENE,67,2.7,3.5,60,0.00,CLR,,0.00,WeatherDisplay:10.37,2013-03-05 03:49:00,
2013-03-04 21:54:00,52.3,38.9,29.69,NNE,24,3.1,3.5,60,0.00,CLR,,0.00,WeatherDisplay:10.37,2013-03-05 03:54:00,
2013-03-04 21:59:00,52.2,38.7,29.69,NE,51,2.2,3.5,60,0.00,CLR,,0.00,WeatherDisplay:10.37,2013-03-05 03:59:00,
2013-03-04 22:04:00,52.2,39.1,29.69,ENE,63,3.1,3.5,61,0.00,CLR,,0.00,WeatherDisplay:10.37,2013-03-05 04:04:00,
2013-03-04 22:09:00,52.0,39.4,29.69,ESE,104,3.1,3.5,62,0.00,CLR,,0.00,WeatherDisplay:10.37,2013-03-05 04:09:00,
2013-03-04 22:14:00,51.6,39.0,29.69,East,83,2.2,3.5,62,0.00,CLR,,0.00,WeatherDisplay:10.37,2013-03-05 04:14:00,
2013-03-04 22:19:00,51.6,39.0,29.69,East,83,0.0,3.1,62,0.00,CLR,,0.00,WeatherDisplay:10.37,2013-03-05 04:19:00,
2013-03-04 22:24:00,51.6,39.0,29.69,East,83,0.0,3.1,62,0.00,CLR,,0.00,WeatherDisplay:10.37,2013-03-05 04:24:00,
2013-03-04 22:29:00,51.6,39.0,29.69,East,83,0.0,0.0,62,0.00,CLR,,0.00,WeatherDisplay:10.37,2013-03-05 04:29:00,
2013-03-04 22:34:00,51.6,39.4,29.69,NE,47,0.0,2.3,63,0.00,CLR,,0.00,WeatherDisplay:10.37,2013-03-05 04:34:00,
2013-03-04 22:39:00,51.6,39.4,29.69,NE,54,0.0,0.0,63,0.00,CLR,,0.00,WeatherDisplay:10.37,2013-03-05 04:39:00,
2013-03-04 22:44:00,51.6,39.4,29.69,NE,54,0.0,0.0,63,0.00,CLR,,0.00,WeatherDisplay:10.37,2013-03-05 04:44:00,
2013-03-04 22:49:00,51.8,39.2,29.69,North,5,2.7,3.5,62,0.00,CLR,,0.00,WeatherDisplay:10.37,2013-03-05 04:49:00,
2013-03-04 22:54:00,51.8,39.2,29.69,North,6,0.0,2.3,62,0.00,CLR,,0.00,WeatherDisplay:10.37,2013-03-05 04:54:00,
2013-03-04 22:59:00,51.8,39.2,29.69,North,3,2.7,3.5,62,0.00,CLR,,0.00,WeatherDisplay:10.37,2013-03-05 04:59:00,
2013-03-04 23:00:00,51.8,39.2,29.69,North,3,2.7,3.5,62,0.00,CLR,,0.00,WeatherDisplay:10.37,2013-03-05 05:00:00,
2013-03-04 23:01:00,51.8,39.2,29.69,North,3,2.2,2.3,62,0.00,CLR,,0.00,WeatherDisplay:10.37,2013-03-05 05:01:00,
2013-03-04 23:06:00,51.8,39.2,29.69,North,5,0.0,3.5,62,0.00,CLR,,0.00,WeatherDisplay:10.37,2013-03-05 05:06:00,
2013-03-04 23:08:00,51.8,39.2,29.69,NNE,23,2.7,3.5,62,0.00,CLR,,0.00,WeatherDisplay:10.37,2013-03-05 05:08:00,
2013-03-04 23:13:00,51.8,39.2,29.69,NNE,23,0.0,0.0,62,0.00,CLR,,0.00,WeatherDisplay:10.37,2013-03-05 05:13:00,
2013-03-04 23:18:00,51.8,39.6,29.69,NNE,17,4.0,5.8,63,0.00,CLR,,0.00,WeatherDisplay:10.37,2013-03-05 05:18:00,
2013-03-04 23:23:00,51.8,39.2,29.69,NNE,17,0.0,0.0,62,0.00,CLR,,0.00,WeatherDisplay:10.37,2013-03-05 05:23:00,
2013-03-04 23:28:00,51.8,39.6,29.69,NNE,17,0.0,0.0,63,0.00,CLR,,0.00,WeatherDisplay:10.37,2013-03-05 05:28:00,
2013-03-04 23:33:00,52.0,39.8,29.69,NNE,19,0.0,0.0,63,0.00,CLR,,0.00,WeatherDisplay:10.37,2013-03-05 05:33:00,
2013-03-04 23:38:00,52.0,39.8,29.69,NNE,19,0.0,2.3,63,0.00,CLR,,0.00,WeatherDisplay:10.37,2013-03-05 05:38:00,
2013-03-04 23:43:00,52.0,39.8,29.69,NNE,19,2.2,3.5,63,0.00,CLR,,0.00,WeatherDisplay:10.37,2013-03-05 05:43:00,
2013-03-04 23:48:00,52.0,39.8,29.69,NNE,19,0.0,2.3,63,0.00,CLR,,0.00,WeatherDisplay:10.37,2013-03-05 05:48:00,
2013-03-04 23:53:00,51.8,39.6,29.69,NNE,21,0.0,0.0,63,0.00,CLR,,0.00,WeatherDisplay:10.37,2013-03-05 05:53:00,
2013-03-04 23:58:00,51.8,39.6,29.69,NNE,25,2.2,2.3,63,0.00,CLR,,0.00,WeatherDisplay:10.37,2013-03-05 05:58:00,